Showing default

ELEKTRO-L, 37344

Orbit data source: Space-Track

ELEKTRO-L, 37344 is a Commonwealth of Independent States-origin payload satellite in GEO that was launched on Thu, 20 Jan 2011 UTC via a ZENIT-3SLBF launch vehicle from the Tyuratam Missile And Space Complex (TTMTR). Payload-class satellites include a variety of spacecraft equipped with specific instruments for various scientific and technological missions. These include communications satellites like Starlink; space stations such as the ISS; scientific satellites like the Hubble; Earth observation satellites from companies like Planet Labs, Umbra, and HawkEye 360; GPS; miniature CubeSats for education and research; and military/defense satellites.

Loading next visibility...
Identifier
37344, 2011-001A
Orbit
GEO
Country
Flag of CISCIS
Related business
Manufacturer
Lavochkin
Mission
Non-operational Civil Weather
Bus & Motor
NAVIGATOR, Unknown motor
Mass
1,620 kg wet, 1,180 kg dry
Launch date (UTC)
2011-01-20 (15 years ago)
Launch vehicle
ZENIT-3SLBF
Launch site
Tyuratam Missile And Space Complex (TTMTR)
Object type
Payload
Rocket body
Debris
Shape & HBR
Box + 1 Pan + 1 Ant, 5.0 m
Radar Cross Section
11.105 m², Large (>1 m²)

Expand to show TLE details & history
Last TLE update: 2 days ago

TLE from 2 days ago
0 ELEKTRO-L
1 37344U 11001A   26171.22703549 -.00000039  00000-0  00000+0 0  9995
2 37344   9.6936  54.4770 0004266  29.3888 153.5264  1.00156556 56511
Epoch: 2026-06-20T05:26Z
TLE epoch observation values (Epoch: 2026-06-20T05:26:55.866Z)
Latitude
-0.50662°
Longitude
-112.78528°
Altitude
35,834.694 km
Speed
3.072 km/s
True Right ascension
15h 49m 34s
True Declination
0° 30' 22"
Sunlit
Object was in daylight at epoch
Visualization orbit readout
Latitude
Unknown
Longitude
Unknown
Altitude
Unknown
Speed
Unknown
Apparent Right ascension
Unknown
Apparent Declination
Unknown
Sunlit
N/A
Visualization observer readout
Local Sidereal Time
23:20:34
Azimuth
Unknown
Elevation
Unknown
Doppler factor
Unknown
Orbital elements
Apogee altitude
35,837.956 km
Perigee altitude
35,801.952 km
Semi-major axis
42,198.091 km
Eccentricity
0.00043
Inclination
9.6936°
RAAN
54.477°
Arg. of periapsis
29.3888°
True anomaly
153.54818°
Mean anomaly
153.5264°
Eccentric anomaly
153.53729°
Mean motion
0.25038 °/min
Orbital period
1,437.8 mins
BSTAR
0
Loading maneuver chart data...
Computing Atmospheric mass density...
Loading historical data...
Loading historical data...
Loading historical data...
Loading historical data...
Loading historical data...
Loading historical data...
Loading historical data...

Documentation

Showing up to 5 results
|